"Timestamp","TZ","WindDir_Mean (deg)","WindSpd_Mean (km/h)","WindSpd_Min (km/h)","WindSpd_Max (km/h)","Temp_Mean (deg)","RH_Mean (%)","MSLP_Mean (hPa)","Rain_Acc (mm)","Rain_Intensity (mm/h)","Hail_Acc (hits/cm2)","Hail_Intensity (hits/cm2hr)","Solar_Mean (W/m2)"
2021/05/24 00:00:00.012,n,261,1.44,0.72,2.52,15.5,69.9,1026.22,0,0,0,0,0.025253
2021/05/24 00:01:00.000,n,257,6.12,5.4,6.84,15.5,70,1026.12,0,0,0,0,0.024376
2021/05/24 00:02:00.000,n,259,3.96,1.44,5.04,15.5,69.9,1026.12,0,0,0,0,0.027885
2021/05/24 00:03:00.003,n,303,4.68,3.96,5.4,15.5,70.1,1026.12,0,0,0,0,0.022621
2021/05/24 00:04:00.002,n,279,6.12,4.32,7.92,15.5,70,1026.12,0,0,0,0,0.026131
2021/05/24 00:05:00.000,n,258,6.12,5.04,6.48,15.5,70,1026.12,0,0,0,0,0.029602
2021/05/24 00:06:00.000,n,249,5.04,4.32,5.4,15.5,69.9,1026.12,0,0,0,0,0.022621
2021/05/24 00:07:00.010,n,209,4.32,3.6,4.68,15.5,69.9,1026.12,0,0,0,0,0.022621
2021/05/24 00:08:00.007,n,271,3.96,3.24,4.68,15.5,70,1026.12,0,0,0,0,0.026131
2021/05/24 00:09:00.004,n,181,3.96,3.24,4.32,15.5,70.2,1026.12,0,0,0,0,0.023537
2021/05/24 00:10:00.001,n,251,2.52,2.16,3.24,15.5,70.3,1026.12,0,0,0,0,0.025253
2021/05/24 00:11:00.000,n,285,2.88,2.16,3.24,15.4,70.5,1026.12,0,0,0,0,0.026131
2021/05/24 00:12:00.000,n,264,3.96,1.8,5.4,15.4,70.2,1026.12,0,0,0,0,0.024376
2021/05/24 00:13:00.000,n,280,3.24,2.88,3.96,15.4,70.3,1026.12,0,0,0,0,0.025253
2021/05/24 00:14:00.006,n,263,3.6,3.24,3.96,15.4,70.4,1026.22,0,0,0,0,0.021782
2021/05/24 00:15:00.003,n,245,2.16,1.44,2.88,15.4,70.4,1026.22,0,0,0,0,0.021782
2021/05/24 00:16:00.000,n,263,1.08,0.36,2.52,15.4,70.5,1026.22,0,0,0,0,0.020027
2021/05/24 00:17:00.014,n,270,7.2,7.2,7.2,15.4,70.5,1026.22,0,0,0,0,0.028725
2021/05/24 00:18:00.010,n,248,4.32,3.96,4.68,15.3,70.7,1026.12,0,0,0,0,0.022621
2021/05/24 00:19:00.000,n,262,4.68,3.96,5.76,15.3,70.8,1026.12,0,0,0,0,0.020905
2021/05/24 00:20:00.000,n,246,2.16,1.8,2.88,15.3,71,1026.22,0,0,0,0,0.019188
2021/05/24 00:21:00.003,n,272,2.16,1.44,2.52,15.3,71,1026.22,0,0,0,0,0.023537
2021/05/24 00:22:00.002,n,236,2.52,2.16,2.52,15.3,71.3,1026.22,0,0,0,0,0.023537
2021/05/24 00:23:00.001,n,163,1.44,1.08,2.16,15.2,71.2,1026.22,0,0,0,0,0.025253
2021/05/24 00:24:00.000,n,339,1.08,0,2.16,15.2,71.9,1026.22,0,0,0,0,0.027885
2021/05/24 00:25:00.012,n,234,0.72,0.72,1.08,15.2,71.6,1026.22,0,0,0,0,0.026131
2021/05/24 00:26:00.010,n,271,1.8,1.08,2.52,15.2,71.6,1026.32,0,0,0,0,0.022621
2021/05/24 00:27:00.007,n,243,1.08,1.08,1.44,15.2,71.6,1026.32,0,0,0,0,0.021782
2021/05/24 00:28:00.000,n,140,1.8,1.8,2.16,15.1,71.9,1026.32,0,0,0,0,0.022621
2021/05/24 00:29:00.000,n,212,1.8,1.44,2.16,15.1,72.1,1026.32,0,0,0,0,0.022621
2021/05/24 00:30:00.000,n,311,1.08,0.72,1.08,15.1,72.5,1026.32,0,0,0,0,0.025253
2021/05/24 00:31:00.000,n,335,1.8,1.44,2.88,15.1,72.6,1026.32,0,0,0,0,0.018272
2021/05/24 00:32:00.009,n,251,7.2,6.12,8.28,15.1,72.4,1026.32,0,0,0,0,0.020905
2021/05/24 00:33:00.006,n,236,4.68,3.96,5.04,15.1,72.4,1026.22,0,0,0,0,0.020905
2021/05/24 00:34:00.002,n,205,1.44,0.72,3.24,15,72.4,1026.22,0,0,0,0,0.024376
2021/05/24 00:35:00.000,n,261,5.4,4.68,6.12,15,72.4,1026.22,0,0,0,0,0.021782
2021/05/24 00:36:00.013,n,253,5.76,5.4,7.2,15,72.4,1026.22,0,0,0,0,0.019188
2021/05/24 00:37:00.000,n,257,7.56,7.2,7.92,15,72.4,1026.12,0,0,0,0,0.023537
2021/05/24 00:38:00.000,n,234,4.68,3.6,5.4,15,72.5,1026.12,0,0,0,0,0.020905
2021/05/24 00:39:00.004,n,24,1.08,0.36,2.16,15,72.8,1026.12,0,0,0,0,0.020905
2021/05/24 00:40:00.001,n,257,1.8,0.72,3.24,15,73.5,1026.12,0,0,0,0,0.017395
2021/05/24 00:41:00.000,n,278,3.6,3.24,3.96,15,73.1,1026.12,0,0,0,0,0.020027
2021/05/24 00:42:00.000,n,248,1.8,0.72,2.16,15,73.3,1026.12,0,0,0,0,0.020905
2021/05/24 00:43:00.009,n,204,1.08,0.72,1.8,15,73.1,1026.12,0,0,0,0,0.020027
2021/05/24 00:44:00.006,n,174,2.88,1.44,3.96,15,73.1,1026.12,0,0,0,0,0.019188
2021/05/24 00:45:00.004,n,135,1.08,0.36,1.8,14.9,73.1,1026.12,0,0,0,0,0.020905
2021/05/24 00:46:00.001,n,282,3.96,3.6,4.68,14.9,73.1,1026.12,0,0,0,0,0.016556
2021/05/24 00:47:00.000,n,248,3.24,2.88,3.96,14.9,73.1,1026.12,0,0,0,0,0.021782
2021/05/24 00:48:00.000,n,241,3.6,2.16,4.68,14.9,73.5,1026.02,0,0,0,0,0.027885
2021/05/24 00:49:00.000,n,251,2.52,1.8,2.88,14.9,73.3,1026.02,0,0,0,0,0.028763
2021/05/24 00:50:00.005,n,293,5.4,5.04,6.12,14.9,74,1026.02,0,0,0,0,0.030479
2021/05/24 00:51:00.002,n,274,3.24,3.24,3.6,14.9,73.5,1026.02,0,0,0,0,0.033112
2021/05/24 00:52:00.000,n,307,1.08,0.72,1.8,14.9,73.4,1026.02,0,0,0,0,0.026131
2021/05/24 00:53:00.012,n,285,4.32,3.6,5.04,14.9,74.2,1026.02,0,0,0,0,0.033112
2021/05/24 00:54:00.009,n,295,3.24,2.52,3.6,14.9,73.7,1026.02,0,0,0,0,0.031357
2021/05/24 00:55:00.000,n,42,1.08,0.72,3.24,14.9,73.7,1026.02,0,0,0,0,0.035706
2021/05/24 00:56:00.002,n,207,0.72,0.36,1.44,14.9,73.8,1026.02,0,0,0,0,0.032234
2021/05/24 00:57:00.000,n,254,4.32,3.6,5.04,14.8,73.8,1026.02,0,0,0,0,0.033989
2021/05/24 00:58:00.000,n,283,2.88,2.52,3.6,14.8,73.9,1026.02,0,0,0,0,0.032234
2021/05/24 00:59:00.000,n,200,2.52,1.8,3.6,14.8,74,1026.02,0,0,0,0,0.029602
2021/05/24 01:00:00.008,n,220,5.04,4.68,5.04,14.8,74.1,1026.02,0,0,0,0,0.031357
2021/05/24 01:01:00.005,n,232,2.52,1.8,3.24,14.8,74.4,1026.02,0,0,0,0,0.027885
2021/05/24 01:02:00.002,n,270,1.44,1.08,2.16,14.8,74.2,1026.02,0,0,0,0,0.028763
2021/05/24 01:03:00.016,n,239,2.88,2.52,3.6,14.8,74.2,1026.12,0,0,0,0,0.027008
2021/05/24 01:04:00.000,n,274,2.52,1.8,2.52,14.8,74.6,1026.12,0,0,0,0,0.032234
2021/05/24 01:05:00.000,n,281,4.68,3.96,6.12,14.8,74.8,1026.12,0,0,0,0,0.027008
2021/05/24 01:06:00.000,n,258,5.76,2.88,7.2,14.8,74.4,1026.12,0,0,0,0,0.030479
2021/05/24 01:07:00.005,n,241,2.52,1.8,3.24,14.7,74.3,1026.12,0,0,0,0,0.025253
2021/05/24 01:08:00.003,n,229,3.6,2.52,4.32,14.7,74.3,1026.12,0,0,0,0,0.026131
2021/05/24 01:09:00.000,n,276,1.8,1.44,2.52,14.7,74.5,1026.12,0,0,0,0,0.025253
2021/05/24 01:10:00.012,n,190,2.52,1.8,3.96,14.7,74.5,1026.12,0,0,0,0,0.024414
2021/05/24 01:11:00.011,n,266,5.4,5.04,6.12,14.7,74.4,1026.22,0,0,0,0,0.023537
2021/05/24 01:12:00.008,n,260,5.4,3.96,5.76,14.7,74.4,1026.12,0,0,0,0,0.025253
2021/05/24 01:13:00.000,n,261,3.24,2.52,4.32,14.7,74.6,1026.12,0,0,0,0,0.022621
2021/05/24 01:14:00.002,n,281,3.6,3.6,3.96,14.7,74.5,1026.12,0,0,0,0,0.025253
2021/05/24 01:15:00.000,n,285,6.84,5.76,7.56,14.7,74.7,1026.12,0,0,0,0,0.028763
2021/05/24 01:16:00.000,n,204,3.6,2.88,3.6,14.7,74.5,1026.12,0,0,0,0,0.029602
2021/05/24 01:17:00.000,n,196,2.52,2.16,3.24,14.7,74.5,1026.12,0,0,0,0,0.029602
2021/05/24 01:18:00.008,n,265,3.24,2.88,3.6,14.7,74.6,1026.12,0,0,0,0,0.027885
2021/05/24 01:19:00.005,n,36,1.8,0.72,2.88,14.7,74.8,1026.02,0,0,0,0,0.027008
2021/05/24 01:20:00.002,n,251,3.96,3.6,5.04,14.7,74.5,1026.02,0,0,0,0,0.027885
2021/05/24 01:21:00.000,n,236,2.88,2.16,3.6,14.7,74.4,1026.02,0,0,0,0,0.024414
2021/05/24 01:22:00.000,n,259,1.44,1.08,1.8,14.7,74.5,1026.02,0,0,0,0,0.024414
2021/05/24 01:23:00.000,n,257,5.76,5.04,6.12,14.7,74.7,1026.02,0,0,0,0,0.029602
2021/05/24 01:24:00.000,n,264,3.96,3.24,4.32,14.7,74.6,1026.02,0,0,0,0,0.026131
2021/05/24 01:25:00.005,n,277,3.24,2.52,4.32,14.7,74.5,1026.02,0,0,0,0,0.027885
2021/05/24 01:26:00.002,n,242,5.4,5.04,6.12,14.7,74.6,1026.02,0,0,0,0,0.031357
2021/05/24 01:27:00.000,n,217,3.96,3.6,4.32,14.7,74.5,1026.02,0,0,0,0,0.029602
2021/05/24 01:28:00.012,n,208,0.72,0.36,1.44,14.7,74.6,1026.02,0,0,0,0,0.026131
2021/05/24 01:29:00.009,n,299,6.84,5.04,7.56,14.7,75.5,1026.02,0,0,0,0,0.026131
2021/05/24 01:30:00.006,n,262,2.88,2.52,3.6,14.7,75,1026.02,0,0,0,0,0.025253
2021/05/24 01:31:00.000,n,261,3.96,2.16,4.68,14.7,74.7,1026.02,0,0,0,0,0.026131
2021/05/24 01:32:00.001,n,275,2.16,1.8,2.52,14.7,74.8,1026.02,0,0,0,0,0.023537
2021/05/24 01:33:00.000,n,237,4.32,4.32,4.68,14.7,75.1,1026.02,0,0,0,0,0.020905
2021/05/24 01:34:00.000,n,112,0.36,0,0.72,14.7,74.8,1026.02,0,0,0,0,0.027885
2021/05/24 01:35:00.008,n,322,1.08,0.72,1.08,14.7,74.7,1026.02,0,0,0,0,0.028763
2021/05/24 01:36:00.005,n,191,1.8,1.08,2.52,14.7,74.8,1026.02,0,0,0,0,0.024414
2021/05/24 01:37:00.003,n,283,1.44,0.72,1.8,14.7,74.8,1025.92,0,0,0,0,0.023537
2021/05/24 01:38:00.000,n,264,3.96,3.6,4.32,14.7,75,1025.92,0,0,0,0,0.020905
2021/05/24 01:39:00.014,n,259,2.16,1.8,2.52,14.7,75.2,1025.92,0,0,0,0,0.023537
2021/05/24 01:40:00.000,n,251,1.44,0.72,1.8,14.7,75.1,1025.92,0,0,0,0,0.024414
2021/05/24 01:41:00.000,n,319,0.72,0.72,1.08,14.7,75.3,1025.92,0,0,0,0,0.019188
2021/05/24 01:42:00.000,n,265,1.44,1.08,1.8,14.6,75.3,1025.82,0,0,0,0,0.027008
2021/05/24 01:43:00.003,n,11,1.8,1.08,2.16,14.6,75.8,1025.82,0,0,0,0,0.021782
2021/05/24 01:44:00.000,n,161,3.96,3.24,4.68,14.6,75.4,1025.82,0,0,0,0,0.024414
2021/05/24 01:45:00.000,n,155,1.8,1.8,2.16,14.6,75.6,1025.82,0,0,0,0,0.018272
2021/05/24 01:46:00.012,n,99,1.44,1.08,2.52,14.6,75.5,1025.82,0,0,0,0,0.021782
2021/05/24 01:47:00.011,n,195,2.52,2.16,2.52,14.6,75.5,1025.82,0,0,0,0,0.018272
2021/05/24 01:48:00.007,n,116,2.52,1.8,2.88,14.6,75.6,1025.82,0,0,0,0,0.025253
2021/05/24 01:49:00.000,n,81,0.72,0.36,1.8,14.5,75.7,1025.82,0,0,0,0,0.017433
2021/05/24 01:50:00.001,n,164,2.16,0.72,2.88,14.5,75.7,1025.82,0,0,0,0,0.019188
2021/05/24 01:51:00.000,n,239,0.72,0,1.08,14.5,75.9,1025.82,0,0,0,0,0.021782
2021/05/24 01:52:00.000,n,98,0.72,0,1.08,14.5,76.1,1025.82,0,0,0,0,0.024414
2021/05/24 01:53:00.007,n,141,3.96,3.6,4.32,14.5,76,1025.82,0,0,0,0,0.024414
2021/05/24 01:54:00.005,n,177,2.52,2.16,2.52,14.4,76.1,1025.72,0,0,0,0,0.027885
2021/05/24 01:55:00.002,n,163,1.8,0.72,2.88,14.4,76.2,1025.72,0,0,0,0,0.026131
2021/05/24 01:56:00.000,n,161,3.24,3.24,3.24,14.4,76.4,1025.72,0,0,0,0,0.029602
2021/05/24 01:57:00.013,n,168,6.48,5.76,6.84,14.3,76.6,1025.72,0,0,0,0,0.031357
2021/05/24 01:58:00.000,n,158,5.04,3.96,5.4,14.3,76.7,1025.72,0,0,0,0,0.025253
2021/05/24 01:59:00.000,n,190,2.88,2.52,3.6,14.3,77.1,1025.62,0,0,0,0,0.025253
2021/05/24 02:00:00.004,n,160,4.32,3.96,4.68,14.3,76.9,1025.72,0,0,0,0,0.024414
2021/05/24 02:01:00.001,n,176,3.6,3.24,3.96,14.2,77.1,1025.62,0,0,0,0,0.025253
2021/05/24 02:02:00.000,n,146,3.96,2.16,4.68,14.2,77.2,1025.62,0,0,0,0,0.027008
2021/05/24 02:03:00.000,n,131,4.68,4.32,4.68,14.2,77.3,1025.62,0,0,0,0,0.025253
2021/05/24 02:04:00.007,n,258,3.24,2.52,4.32,14.2,77.4,1025.72,0,0,0,0,0.027008
2021/05/24 02:05:00.004,n,89,1.08,0.72,1.08,14.2,77.6,1025.62,0,0,0,0,0.033112
2021/05/24 02:06:00.002,n,88,1.44,0.36,1.8,14.2,77.7,1025.62,0,0,0,0,0.024414
2021/05/24 02:07:00.000,n,249,3.6,2.52,4.32,14.2,77.7,1025.72,0,0,0,0,0.024414
2021/05/24 02:08:00.000,n,170,1.44,0.72,2.88,14.2,77.7,1025.72,0,0,0,0,0.029602
2021/05/24 02:09:00.000,n,270,4.32,3.96,5.04,14.2,77.5,1025.72,0,0,0,0,0.025253
2021/05/24 02:10:00.007,n,284,1.8,1.44,1.8,14.2,77.8,1025.72,0,0,0,0,0.023537
2021/05/24 02:11:00.004,n,252,5.76,5.04,6.84,14.2,77.6,1025.72,0,0,0,0,0.030479
2021/05/24 02:12:00.002,n,280,3.96,2.88,5.04,14.2,77.6,1025.62,0,0,0,0,0.023537
2021/05/24 02:13:00.000,n,321,1.08,0.36,1.44,14.2,77.8,1025.62,0,0,0,0,0.025253
2021/05/24 02:14:00.014,n,138,1.8,1.44,2.16,14.1,77.7,1025.62,0,0,0,0,0.029602
2021/05/24 02:15:00.011,n,191,1.44,0.72,1.8,14.1,77.7,1025.52,0,0,0,0,0.020905
2021/05/24 02:16:00.000,n,16,0.72,0.36,0.72,14.1,78,1025.52,0,0,0,0,0.025253
2021/05/24 02:17:00.000,n,271,4.32,3.6,4.68,14.1,77.8,1025.52,0,0,0,0,0.021782
2021/05/24 02:18:00.002,n,269,3.96,3.6,4.32,14.1,77.9,1025.52,0,0,0,0,0.028763
2021/05/24 02:19:00.000,n,232,2.16,1.8,2.52,14.1,77.8,1025.52,0,0,0,0,0.020905
2021/05/24 02:20:00.000,n,278,4.68,3.96,5.04,14.1,78,1025.42,0,0,0,0,0.019188
2021/05/24 02:21:00.009,n,251,2.88,2.16,3.24,14.1,77.8,1025.42,0,0,0,0,0.024414
2021/05/24 02:22:00.005,n,39,2.52,1.08,3.96,14.1,78.1,1025.42,0,0,0,0,0.019188
2021/05/24 02:23:00.003,n,196,2.16,1.8,2.52,14.2,77.9,1025.42,0,0,0,0,0.022621
2021/05/24 02:24:00.001,n,206,2.88,2.52,3.6,14.2,77.9,1025.42,0,0,0,0,0.019188
2021/05/24 02:25:00.000,n,230,0.72,0.36,0.72,14.2,78.1,1025.32,0,0,0,0,0.021782
2021/05/24 02:26:00.000,n,232,2.88,2.52,3.6,14.2,78,1025.32,0,0,0,0,0.019188
2021/05/24 02:27:00.000,n,268,1.08,0.72,1.8,14.2,77.9,1025.32,0,0,0,0,0.019188
2021/05/24 02:28:00.004,n,321,1.08,0.36,2.16,14.2,77.9,1025.32,0,0,0,0,0.020027
2021/05/24 02:29:00.002,n,257,2.52,2.16,2.88,14.2,78,1025.32,0,0,0,0,0.018272
2021/05/24 02:30:00.000,n,208,3.96,3.24,4.68,14.2,78,1025.32,0,0,0,0,0.025253
2021/05/24 02:31:00.013,n,303,0.72,0.36,1.44,14.2,77.9,1025.32,0,0,0,0,0.025253
2021/05/24 02:32:00.009,n,216,2.16,1.8,2.88,14.2,78,1025.32,0,0,0,0,0.021782
2021/05/24 02:33:00.006,n,317,1.8,0.72,2.88,14.2,78.4,1025.32,0,0,0,0,0.019188
2021/05/24 02:34:00.000,n,309,1.8,1.44,2.52,14.2,78.4,1025.32,0,0,0,0,0.019188
2021/05/24 02:35:00.000,n,171,6.48,6.12,7.2,14.2,78,1025.32,0,0,0,0,0.022621
2021/05/24 02:36:00.000,n,208,1.8,1.08,2.52,14.2,77.8,1025.32,0,0,0,0,0.020905
2021/05/24 02:37:00.000,n,45,1.44,1.08,1.8,14.2,77.9,1025.32,0,0,0,0,0.022621
2021/05/24 02:38:00.008,n,254,3.6,3.24,3.96,14.2,77.9,1025.32,0,0,0,0,0.024414
2021/05/24 02:39:00.005,n,268,5.04,4.68,5.4,14.2,77.9,1025.32,0,0,0,0,0.025253
2021/05/24 02:40:00.004,n,267,3.24,3.24,3.6,14.2,77.9,1025.32,0,0,0,0,0.023537
2021/05/24 02:41:00.000,n,267,6.48,5.4,6.84,14.2,78.1,1025.32,0,0,0,0,0.023537
2021/05/24 02:42:00.014,n,265,6.84,6.48,7.2,14.2,78.2,1025.42,0,0,0,0,0.020027
2021/05/24 02:43:00.000,n,294,2.88,1.44,5.04,14.2,78.8,1025.42,0,0,0,0,0.022621
2021/05/24 02:44:00.000,n,279,3.96,3.6,4.32,14.2,78.6,1025.42,0,0,0,0,0.018272
2021/05/24 02:45:00.000,n,261,6.48,5.76,6.84,14.2,78.5,1025.42,0,0,0,0,0.020905
2021/05/24 02:46:00.002,n,266,7.2,6.12,9,14.1,78.5,1025.42,0,0,0,0,0.019188
2021/05/24 02:47:00.000,n,284,5.76,5.4,6.84,14.1,78.7,1025.42,0,0,0,0,0.020027
2021/05/24 02:48:00.000,n,253,6.48,6.12,6.84,14.1,78.6,1025.42,0,0,0,0,0.019188
2021/05/24 02:49:00.011,n,256,8.28,7.2,9.72,14.1,78.6,1025.32,0,0,0,0,0.018272
2021/05/24 02:50:00.008,n,235,2.88,1.08,3.96,14.1,78.7,1025.32,0,0,0,0,0.016556
2021/05/24 02:51:00.005,n,283,5.76,3.6,7.2,14.1,78.7,1025.32,0,0,0,0,0.012207
2021/05/24 02:52:00.000,n,264,7.2,6.12,8.28,14.1,78.6,1025.32,0,0,0,0,0.015678
2021/05/24 02:53:00.000,n,276,5.04,3.96,6.12,14.1,78.5,1025.32,0,0,0,0,0.021782
2021/05/24 02:54:00.000,n,218,2.88,2.52,5.04,14.1,78.5,1025.32,0,0,0,0,0.019188
2021/05/24 02:55:00.000,n,252,2.52,1.08,4.32,14.1,78.6,1025.32,0,0,0,0,0.015678
2021/05/24 02:56:00.000,n,265,5.04,4.68,5.4,14.1,78.5,1025.42,0,0,0,0,0.013924
2021/05/24 02:57:00.006,n,266,4.68,4.32,5.4,14.1,78.5,1025.42,0,0,0,0,0.019188
2021/05/24 02:58:00.003,n,222,1.8,1.44,1.8,14.1,78.4,1025.42,0,0,0,0,0.014839
2021/05/24 02:59:00.002,n,14,2.52,1.8,2.52,14.1,78.7,1025.42,0,0,0,0,0.018272
2021/05/24 03:00:00.016,n,253,0.72,0.36,1.08,14.1,78.9,1025.42,0,0,0,0,0.014839
2021/05/24 03:01:00.000,n,260,4.32,3.6,4.68,14.2,78.8,1025.42,0,0,0,0,0.014839
2021/05/24 03:02:00.000,n,215,2.88,1.8,3.96,14.2,78.7,1025.42,0,0,0,0,0.015678
2021/05/24 03:03:00.000,n,297,2.52,1.44,5.4,14.2,78.6,1025.42,0,0,0,0,0.017433
2021/05/24 03:04:00.005,n,226,1.44,0.72,1.44,14.2,78.6,1025.42,0,0,0,0,0.019188
2021/05/24 03:05:00.003,n,282,2.16,1.08,3.6,14.2,78.6,1025.42,0,0,0,0,0.020027
2021/05/24 03:06:00.000,n,252,4.68,3.96,5.76,14.3,78.5,1025.42,0,0,0,0,0.020027
2021/05/24 03:07:00.012,n,222,2.88,2.52,3.24,14.3,78.5,1025.52,0,0,0,0,0.016556
2021/05/24 03:08:00.009,n,270,2.88,2.16,3.6,14.3,78.7,1025.52,0,0,0,0,0.013046
2021/05/24 03:09:00.006,n,229,1.8,1.44,2.16,14.3,78.8,1025.52,0,0,0,0,0.017433
2021/05/24 03:10:00.000,n,278,3.6,2.88,5.4,14.3,78.8,1025.52,0,0,0,0,0.020905
2021/05/24 03:11:00.000,n,204,3.24,2.88,3.6,14.4,78.8,1025.52,0,0,0,0,0.022621
2021/05/24 03:12:00.000,n,240,1.8,1.44,2.16,14.4,78.7,1025.52,0,0,0,0,0.016556
2021/05/24 03:13:00.000,n,250,2.16,2.16,2.88,14.4,78.8,1025.52,0,0,0,0,0.015678
2021/05/24 03:14:00.000,n,81,1.44,1.44,1.8,14.5,78.6,1025.52,0,0,0,0,0.015678
2021/05/24 03:15:00.006,n,337,1.08,0.72,1.44,14.5,78.4,1025.52,0,0,0,0,0.014839
2021/05/24 03:16:00.003,n,194,2.88,0.72,3.96,14.5,78.4,1025.52,0,0,0,0,0.017433
2021/05/24 03:17:00.001,n,211,0.72,0.36,1.44,14.5,78.3,1025.52,0,0,0,0,0.014839
2021/05/24 03:18:00.015,n,335,0.36,0.36,0.36,14.5,78.3,1025.52,0,0,0,0,0.015678
2021/05/24 03:19:00.000,n,235,2.16,0.72,2.52,14.5,78.3,1025.52,0,0,0,0,0.014839
2021/05/24 03:20:00.000,n,263,7.56,7.2,7.56,14.5,78.4,1025.52,0,0,0,0,0.016556
2021/05/24 03:21:00.000,n,205,4.68,4.32,5.04,14.5,78.2,1025.52,0,0,0,0,0.015678
2021/05/24 03:22:00.003,n,191,1.8,0.72,2.88,14.5,78.2,1025.52,0,0,0,0,0.015678
2021/05/24 03:23:00.000,n,247,5.4,4.32,5.76,14.5,78.2,1025.52,0,0,0,0,0.015678
2021/05/24 03:24:00.000,n,294,3.6,2.52,4.68,14.5,78.3,1025.52,0,0,0,0,0.018272
2021/05/24 03:25:00.010,n,243,1.8,0.36,3.24,14.5,78.4,1025.52,0,0,0,0,0.030479
2021/05/24 03:26:00.004,n,273,4.68,3.96,5.4,14.5,78.3,1025.52,0,0,0,0,0.034828
2021/05/24 03:27:00.001,n,278,5.76,5.04,6.48,14.5,78.1,1025.52,0,0,0,0,0.039177
2021/05/24 03:28:00.000,n,270,3.96,2.88,5.4,14.5,78,1025.52,0,0,0,0,0.035706
2021/05/24 03:29:00.000,n,195,1.44,1.44,1.44,14.5,77.9,1025.52,0,0,0,0,0.033112
2021/05/24 03:30:00.000,n,245,3.96,3.24,5.04,14.5,78.5,1025.52,0,0,0,0,0.033112
2021/05/24 03:31:00.000,n,144,1.44,0.72,1.8,14.6,78.4,1025.52,0,0,0,0,0.036583
2021/05/24 03:32:00.004,n,24,2.52,1.8,3.24,14.6,78.1,1025.52,0,0,0,0,0.033112
2021/05/24 03:33:00.002,n,182,1.8,1.08,3.24,14.6,77.8,1025.52,0,0,0,0,0.033951
2021/05/24 03:34:00.000,n,111,2.16,1.08,2.88,14.6,78,1025.52,0,0,0,0,0.034828
2021/05/24 03:35:00.012,n,226,3.24,2.52,3.24,14.6,77.8,1025.52,0,0,0,0,0.036583
2021/05/24 03:36:00.010,n,286,1.44,0.72,2.52,14.6,78,1025.42,0,0,0,0,0.036583
2021/05/24 03:37:00.000,n,298,1.44,0.72,2.16,14.6,77.9,1025.42,0,0,0,0,0.036583
2021/05/24 03:38:00.000,n,356,3.24,1.08,5.04,14.6,78.1,1025.42,0,0,0,0,0.042648
2021/05/24 03:39:00.001,n,220,2.52,2.16,2.88,14.6,77.9,1025.42,0,0,0,0,0.033951
2021/05/24 03:40:00.000,n,184,3.24,2.88,4.32,14.6,77.9,1025.42,0,0,0,0,0.0383
2021/05/24 03:41:00.000,n,196,2.52,2.16,3.6,14.6,77.9,1025.42,0,0,0,0,0.033951
2021/05/24 03:42:00.008,n,208,1.08,0.72,1.08,14.6,77.8,1025.42,0,0,0,0,0.03746
2021/05/24 03:43:00.005,n,177,5.76,5.04,6.48,14.5,77.9,1025.32,0,0,0,0,0.03746
2021/05/24 03:44:00.002,n,241,0.36,0.36,0.36,14.5,77.9,1025.32,0,0,0,0,0.041809
2021/05/24 03:45:00.000,n,102,0.72,0.36,1.08,14.5,77.8,1025.32,0,0,0,0,0.036583
2021/05/24 03:46:00.000,n,191,1.08,0.36,1.8,14.5,77.9,1025.32,0,0,0,0,0.039177
2021/05/24 03:47:00.000,n,222,1.08,0.36,1.8,14.5,77.9,1025.32,0,0,0,0,0.040054
2021/05/24 03:48:00.000,n,151,2.16,1.8,2.88,14.5,77.9,1025.32,0,0,0,0,0.033951
2021/05/24 03:49:00.005,n,123,0.36,0,0.72,14.5,77.8,1025.22,0,0,0,0,0.036583
2021/05/24 03:50:00.003,n,301,3.96,3.6,4.68,14.5,78.3,1025.22,0,0,0,0,0.0383
2021/05/24 03:51:00.000,n,143,1.08,0.72,1.08,14.5,78,1025.22,0,0,0,0,0.035706
2021/05/24 03:52:00.000,n,230,1.44,1.08,1.44,14.5,78,1025.22,0,0,0,0,0.0383
2021/05/24 03:53:00.011,n,303,0.36,0.36,0.72,14.5,78,1025.22,0,0,0,0,0.043564
2021/05/24 03:54:00.009,n,220,2.52,1.44,3.24,14.5,77.9,1025.22,0,0,0,0,0.035706
2021/05/24 03:55:00.000,n,282,0.72,0.36,1.08,14.5,77.8,1025.22,0,0,0,0,0.033951
2021/05/24 03:56:00.002,n,129,2.16,1.8,2.88,14.5,77.8,1025.22,0,0,0,0,0.036583
2021/05/24 03:57:00.000,n,114,3.24,2.88,3.96,14.4,78,1025.22,0,0,0,0,0.035706
2021/05/24 03:58:00.000,n,121,0.72,0.36,0.72,14.4,78.1,1025.22,0,0,0,0,0.039177
2021/05/24 03:59:00.000,n,141,3.6,2.52,3.96,14.4,78.2,1025.22,0,0,0,0,0.040932
2021/05/24 04:00:00.007,n,194,3.96,3.24,5.4,14.4,78.1,1025.22,0,0,0,0,0.039177
2021/05/24 04:01:00.004,n,178,3.6,3.24,4.32,14.4,78.1,1025.22,0,0,0,0,0.040932
2021/05/24 04:02:00.000,n,201,0.72,0.36,0.72,14.3,78.1,1025.22,0,0,0,0,0.035706
2021/05/24 04:03:00.014,n,209,1.8,1.44,2.88,14.3,78.3,1025.22,0,0,0,0,0.0383
2021/05/24 04:04:00.000,n,285,1.08,0,1.8,14.3,78.4,1025.22,0,0,0,0,0.035706
2021/05/24 04:05:00.000,n,103,1.08,0.72,1.44,14.3,78.5,1025.22,0,0,0,0,0.042648
2021/05/24 04:06:00.000,n,251,2.16,1.44,3.24,14.3,78.6,1025.22,0,0,0,0,0.0383
2021/05/24 04:07:00.003,n,272,0.72,0.36,0.72,14.3,78.6,1025.22,0,0,0,0,0.041809
2021/05/24 04:08:00.001,n,97,1.44,1.08,2.16,14.2,78.6,1025.32,0,0,0,0,0.039177
2021/05/24 04:09:00.000,n,244,2.16,1.8,2.52,14.2,78.7,1025.32,0,0,0,0,0.040054
2021/05/24 04:10:00.000,n,168,1.08,0.36,1.44,14.2,78.9,1025.32,0,0,0,0,0.033951
2021/05/24 04:11:00.011,n,227,2.16,1.44,2.52,14.2,78.9,1025.32,0,0,0,0,0.03746
2021/05/24 04:12:00.008,n,275,2.88,2.16,3.6,14.2,79.3,1025.32,0,0,0,0,0.030479
2021/05/24 04:13:00.000,n,117,0.36,0,0.72,14.2,79.2,1025.32,0,0,0,0,0.03746
2021/05/24 04:14:00.001,n,184,1.08,0.72,1.44,14.2,79.1,1025.32,0,0,0,0,0.039177
2021/05/24 04:15:00.000,n,232,1.8,1.08,2.16,14.2,79.2,1025.32,0,0,0,0,0.0383
2021/05/24 04:16:00.000,n,305,1.44,0.72,2.52,14.1,79.2,1025.32,0,0,0,0,0.041809
2021/05/24 04:17:00.000,n,183,0.72,0.36,1.08,14.1,79.3,1025.32,0,0,0,0,0.033951
2021/05/24 04:18:00.008,n,6,1.08,0.72,1.44,14.1,79.3,1025.22,0,0,0,0,0.035706
2021/05/24 04:19:00.006,n,318,1.44,1.08,2.16,14.1,79.3,1025.32,0,0,0,0,0.036583
2021/05/24 04:20:00.003,n,134,1.8,1.08,2.52,14.1,79.2,1025.32,0,0,0,0,0.0383
2021/05/24 04:21:00.000,n,130,0.72,0.36,1.44,14.1,79.2,1025.32,0,0,0,0,0.035706
2021/05/24 04:22:00.000,n,126,1.44,0.36,2.16,14.1,79.4,1025.32,0,0,0,0,0.034828
2021/05/24 04:23:00.000,n,154,1.44,0.72,2.52,14.1,79.4,1025.32,0,0,0,0,0.033112
2021/05/24 04:24:00.000,n,256,1.44,0.36,3.24,14.1,79.5,1025.32,0,0,0,0,0.036583
2021/05/24 04:25:00.000,n,298,3.6,2.52,5.04,14,79.6,1025.32,0,0,0,0,0.035706
2021/05/24 04:26:00.004,n,213,2.52,1.44,2.88,14.1,79.7,1025.32,0,0,0,0,0.040054
2021/05/24 04:27:00.001,n,131,0.36,0.36,1.08,14,79.7,1025.32,0,0,0,0,0.0383
2021/05/24 04:28:00.000,n,176,2.16,2.16,2.88,14,79.6,1025.32,0,0,0,0,0.036583
2021/05/24 04:29:00.012,n,137,2.16,1.44,2.88,14,79.6,1025.32,0,0,0,0,0.033951
2021/05/24 04:30:00.009,n,263,1.44,0.36,2.16,14,79.7,1025.32,0,0,0,0,0.03746
2021/05/24 04:31:00.000,n,186,1.08,0.36,2.16,14,79.9,1025.42,0,0,0,0,0.033112
2021/05/24 04:32:00.000,n,213,1.44,0.72,2.88,14,79.7,1025.42,0,0,0,0,0.039177
2021/05/24 04:33:00.002,n,156,5.04,3.6,6.12,14,79.6,1025.42,0,0,0,0,0.033112
2021/05/24 04:34:00.000,n,181,1.44,1.08,1.44,14,79.5,1025.42,0,0,0,0,0.033951
2021/05/24 04:35:00.000,n,135,2.88,2.52,3.6,13.9,79.6,1025.42,0,0,0,0,0.033112
2021/05/24 04:36:00.008,n,295,3.96,3.6,4.68,13.9,79.8,1025.52,0,0,0,0,0.029602
2021/05/24 04:37:00.005,n,184,1.8,1.08,1.8,13.9,79.8,1025.52,0,0,0,0,0.028725
2021/05/24 04:38:00.002,n,254,0.72,0.36,1.08,13.9,79.7,1025.52,0,0,0,0,0.033112
2021/05/24 04:39:00.015,n,178,2.16,1.8,3.6,13.9,79.7,1025.52,0,0,0,0,0.035706
2021/05/24 04:40:00.000,n,312,2.16,1.44,2.52,13.9,80.3,1025.52,0,0,0,0,0.033951
2021/05/24 04:41:00.000,n,308,3.96,3.6,3.96,13.9,80.2,1025.52,0,0,0,0,0.035706
2021/05/24 04:42:00.000,n,291,1.8,1.08,2.16,13.9,80.2,1025.52,0,0,0,0,0.035706
2021/05/24 04:43:00.006,n,254,2.52,1.8,2.88,13.9,80,1025.52,0,0,0,0,0.030479
2021/05/24 04:44:00.003,n,251,2.16,1.44,2.52,13.9,80,1025.52,0,0,0,0,0.031357
2021/05/24 04:45:00.000,n,332,1.8,1.44,2.52,13.9,80.1,1025.52,0,0,0,0,0.030479
2021/05/24 04:46:00.012,n,273,2.88,2.52,3.6,13.9,79.9,1025.52,0,0,0,0,0.029602
2021/05/24 04:47:00.010,n,28,0.72,0.36,0.72,13.9,79.9,1025.52,0,0,0,0,0.028725
2021/05/24 04:48:00.007,n,124,1.8,1.8,2.16,13.9,79.8,1025.52,0,0,0,0,0.033112
2021/05/24 04:49:00.000,n,195,1.08,0.72,1.44,13.9,79.8,1025.52,0,0,0,0,0.033951
2021/05/24 04:50:00.000,n,171,3.6,2.16,3.96,13.9,79.8,1025.52,0,0,0,0,0.034828
2021/05/24 04:51:00.000,n,247,1.8,1.08,2.52,13.8,79.9,1025.52,0,0,0,0,0.031357
2021/05/24 04:52:00.000,n,147,3.6,3.24,3.6,13.8,80,1025.52,0,0,0,0,0.035706
2021/05/24 04:53:00.000,n,253,2.16,1.44,2.52,13.8,80,1025.62,0,0,0,0,0.030479
2021/05/24 04:54:00.006,n,109,1.08,0.72,1.8,13.8,80.2,1025.62,0,0,0,0,0.029602
2021/05/24 04:55:00.004,n,265,1.8,1.44,2.16,13.9,80.2,1025.62,0,0,0,0,0.029602
2021/05/24 04:56:00.000,n,255,1.44,1.44,1.8,13.9,80.5,1025.62,0,0,0,0,0.029602